Vertical_Velocity
0 0 -3 -12 -10 -6 -1 -5 0 0 -2 2 0 -6 -3 1 1 -3 7 -10 -2 2 1 4 7 4 2 -1 0 -3 -2 1 -2 -1 0 -2 1 -1 4 0 -2 -3 -2 0 -0 1 -3 -2 -0
-1 3 4 -4 -8 -2 -4 -2 1 1 0 0 -5 3 -3 -1 0 -3 7 -1 2 1 2 1 3 4 0 -2 -1 -3 -2 -0 -2 0 1 1 1 1 -2 2 1 2 2 2 -2 -2 1 -4 -2
-1 2 -5 -4 -1 -2 -2 0 0 3 5 6 -2 -0 2 1 -1 -0 5 -0 -1 2 -2 -1 3 3 0 1 -4 -0 -0 -4 -2 0 -1 -0 3 3 2 1 -1 1 1 2 3 5 5 -2 -0
-1 -1 3 -6 -1 -4 -2 -0 -1 0 -0 -13 -8 -2 -3 0 -1 5 2 2 3 1 -1 1 -0 5 -1 -1 -2 1 -0 -0 -1 -2 0 2 -3 -2 -1 -2 -1 -1 -2 0 -4 -2 -1 2 -0
0 0 -3 -1 -2 -2 0 -2 1 1 1 -1 1 2 -2 -4 4 0 -1 1 -0 -3 -3 0 2 1 2 2 3 2 1 2 -3 1 -2 -2 -2 1 -2 1 0 -2 -9 -2 -2 2 -2 1 -1
-1 1 -4 -0 -1 -1 0 1 3 -0 -0 4 1 -1 1 -0 4 1 2 -2 1 -1 0 1 0 2 2 1 -2 2 -1 -0 2 0 1 -2 2 3 2 -1 -0 3 -0 0 1 -1 -2 2 0
-4 -3 -1 -0 -1 -1 2 6 0 1 1 1 -0 -2 3 -1 3 1 -1 -0 -0 5 -2 -0 4 3 2 -1 2 3 2 -2 1 -2 -1 -4 2 2 -1 -0 1 -1 2 1 4 1 -2 -0 -1
0 -5 0 0 -0 -3 1 -3 -21 11 -1 -2 0 -3 -0 -5 0 1 1 -2 -0 2 1 4 2 -2 2 -2 -0 -0 1 -3 -1 -2 4 4 -0 -3 1 -0 -3 -8 -3 -3 -3 -4 -5 -2 -4
2 -5 -0 -1 -1 -2 3 -1 -2 6 -4 1 3 -0 -1 -2 -1 -1 -0 2 2 2 2 2 3 4 1 3 3 0 -0 -6 -1 1 -1 1 -3 -4 -1 -1 2 1 -0 -4 -5 0 -4 -3 -3
-3 -3 -4 -3 -1 -3 -4 3 1 -3 0 -3 -0 2 2 -0 -2 -3 -3 -4 -2 -2 1 -1 -3 -3 2 1 1 -3 -5 -1 0 -1 -4 -3 -0 4 -2 -3 -0 0 -2 -3 -3 -2 -1 -1 -3
1 -4 -2 -0 -1 -4 2 0 -1 -3 -1 -4 -12 -5 -4 -1 -0 1 0 -1 -3 -1 -3 1 4 5 -2 -1 -1 -0 -1 5 3 1 3 3 1 -1 3 0 -1 0 0 1 -0 -0 1 0 -1
-1 1 -4 2 3 2 -1 -1 1 -1 -3 2 3 -4 -2 -4 -4 -3 -1 -3 -4 -3 3 -1 -3 1 3 3 5 5 4 4 0 2 3 6 3 -1 4 0 1 4 5 3 2 5 2 2 1
3 0 4 -1 -2 3 -1 -1 -4 -1 1 -1 1 4 0 2 4 2 8 9 7 -1 10 3 4 4 8 6 0 2 3 1 1 3 5 3 6 2 4 3 1 -2 2 2 3 -1 0 -1 -2
-2 0 -0 3 2 2 -4 1 -0 -0 1 1 1 -0 1 -1 -6 5 1 1 -0 6 4 4 5 7 6 4 6 6 3 6 4 4 3 1 2 3 3 -2 -2 0 1 0 -2 -2 -3 -3 -3
-0 -3 -2 -0 1 1 0 -2 0 2 3 0 4 12 15 5 4 2 5 3 5 5 3 2 2 0 2 0 7 11 -10 8 9 7 5 2 3 2 1 1 1 -1 -0 3 -1 -2 -2 0 1
-4 -5 -2 -3 -0 2 -6 -4 0 3 -4 6 0 1 3 2 -3 -2 2 9 7 3 4 10 -6 2 6 14 -6 -15 9 7 3 6 3 3 5 5 6 4 1 -3 -7 -1 -2 -5 -2 0 -3
-3 -2 -0 -0 0 -1 -5 -0 -1 5 3 0 2 3 1 3 1 -2 0 7 0 2 4 3 -1 -2 -3 -30 -1 -2 5 -2 1 -1 1 5 6 4 -1 3 -3 6 -1 1 -1 -1 -2 -6 -6
-2 -0 -0 -1 -0 -4 -1 -1 -2 0 2 2 2 1 1 -0 1 -1 -2 2 3 8 9 5 4 0 -24 15 1 1 1 5 1 1 -0 -4 -5 -11 4 -14 3 1 1 5 4 -0 -2 1 -0
-1 -1 -0 -1 1 -10 1 0 1 3 -0 1 2 2 0 1 1 2 5 3 2 3 0 -6 -6 -0 -2 8 1 -1 -1 -4 -6 -6 0 -2 -1 2 4 0 1 2 -1 -7 -7 -6 -4 -2 1
-1 -1 1 0 -1 -10 -1 2 1 -0 2 0 -0 -0 -1 -2 -0 1 1 2 2 4 2 1 6 4 2 -3 -3 -2 2 4 1 -1 -2 -2 -1 1 1 2 2 -1 -1 -0 -4 -3 -3 -1 -2
0 -2 0 -3 1 -1 -3 -3 -2 -1 -0 2 3 2 2 1 -2 3 2 1 2 0 4 -0 0 -1 1 6 2 -3 -2 -1 -1 -1 -2 1 1 3 2 2 -4 -2 -3 0 -1 -2 -1 -1 1
-1 0 -1 -1 -3 -3 -4 -5 1 0 0 -0 2 2 1 1 -0 -0 5 2 4 2 -1 -1 -1 4 3 1 0 -2 -2 -2 0 3 2 4 3 -1 3 -4 -2 -3 -4 -3 -1 -2 -4 -5 -6
1 -1 -0 -1 -1 -4 -3 -8 -4 -1 1 -0 -1 1 1 3 4 -2 1 2 0 3 8 3 -0 -2 -2 -3 -1 1 3 3 2 2 3 1 -3 -4 -3 -7 -6 -5 -4 -4 -2 -1 -0 -0 2
-0 -3 -4 -2 -2 -4 -0 -5 -4 -2 -6 1 0 2 3 5 4 11 2 1 -1 5 -6 -1 3 2 2 2 1 1 0 0 -1 -1 -2 -3 -4 -2 -3 -1 2 5 4 1 2 1 2 -1 -0
-4 -5 -4 -7 -6 -6 -0 -2 -9 -2 -0 -5 -4 0 -1 -1 -3 5 -7 -9 -9 6 -3 3 2 -0 -1 0 -1 0 1 1 0 -1 -2 -3 -1 -1 -0 2 1 -3 -5 -6 -3 -2 -0 2 2
1 -5 -7 -4 -2 -4 -1 -2 -11 -2 -1 1 4 2 2 -2 0 -2 -4 4 -2 3 2 3 -4 -3 0 -3 -3 -3 -6 -6 -4 -0 1 0 3 1 1 1 -1 -4 2 1 1 -2 -1 -4 -4
-1 -4 -4 -5 -1 -3 -3 -4 -5 -1 2 3 -0 1 -2 -0 -1 -3 -0 4 3 -0 1 -1 -3 -1 -4 -3 -3 -1 1 0 0 1 3 2 0 2 1 2 -1 -1 -3 -7 -4 0 -3 -4 2
-4 -5 -9 -5 -3 -1 -3 -1 -6 0 0 1 3 0 1 0 -0 -1 2 4 6 2 5 -4 -1 -2 0 2 3 3 0 2 2 -0 -3 -4 -2 -2 2 -4 0 1 -1 8 4 5 2 3 2
-4 -1 -4 -7 -4 -4 -2 -9 -4 -5 -4 -3 -1 -1 -2 1 2 4 5 4 1 3 -4 2 0 -3 -2 -0 0 -2 0 0 -2 -4 -6 -7 -6 -8 -7 7 3 5 -1 -10 -5 -5 3 4 -0
-1 -1 -3 -7 -1 -1 -4 -15 0 -1 -2 -2 -2 -1 2 6 4 4 2 -0 -2 -3 7 -6 -6 -2 -3 -0 -1 1 1 -3 -6 -5 -1 1 1 2 3 7 8 -0 -1 3 -3 3 4 0 0
Height
1512 1511 1512 1513 1521 1523 1531 1521 1511 1514 1518 1519 1521 1523 1529 1530 1530 1538 1532 1537 1543 1545 1548 1552 1554 1555 1556 1558 1560 1563 1564 1564 1566 1566 1566 1566 1566 1566 1566 1565 1565 1565 1565 1565 1564 1563 1562 1561 1561
1511 1510 1512 1514 1527 1533 1531 1515 1515 1517 1519 1521 1525 1524 1525 1533 1533 1531 1533 1537 1541 1545 1548 1552 1555 1556 1557 1558 1560 1562 1564 1565 1566 1566 1567 1568 1567 1568 1567 1567 1566 1567 1567 1566 1565 1565 1563 1561 1560
1510 1510 1511 1521 1528 1529 1528 1516 1518 1518 1518 1522 1526 1528 1529 1531 1533 1533 1534 1537 1543 1545 1549 1553 1556 1557 1558 1559 1560 1562 1563 1565 1566 1567 1568 1569 1569 1569 1568 1568 1569 1569 1568 1567 1568 1565 1565 1564 1562
1510 1511 1513 1525 1523 1517 1515 1517 1512 1518 1519 1522 1530 1529 1532 1532 1536 1535 1537 1540 1543 1546 1550 1554 1557 1558 1559 1560 1561 1562 1564 1565 1566 1567 1568 1569 1569 1570 1569 1569 1570 1569 1568 1568 1567 1567 1565 1565 1562
1509 1510 1521 1528 1523 1517 1510 1513 1519 1516 1523 1524 1522 1525 1532 1533 1537 1537 1539 1543 1545 1548 1552 1554 1557 1559 1559 1560 1561 1563 1564 1566 1567 1568 1569 1570 1571 1570 1569 1569 1569 1569 1569 1568 1570 1570 1568 1566 1564
1508 1509 1528 1534 1523 1514 1511 1511 1519 1524 1521 1520 1525 1525 1530 1534 1539 1539 1541 1544 1547 1549 1552 1555 1557 1559 1560 1560 1562 1564 1565 1566 1567 1569 1570 1571 1571 1570 1569 1570 1571 1571 1570 1570 1570 1569 1570 1568 1565
1507 1513 1522 1522 1521 1515 1515 1514 1523 1527 1522 1522 1524 1526 1532 1535 1539 1540 1542 1545 1548 1552 1554 1556 1556 1558 1560 1561 1563 1564 1565 1567 1569 1571 1571 1574 1573 1571 1571 1571 1573 1572 1572 1572 1572 1570 1570 1569 1567
1505 1510 1518 1522 1521 1524 1515 1518 1527 1524 1523 1524 1524 1527 1533 1534 1538 1541 1544 1547 1550 1552 1554 1556 1557 1558 1560 1561 1563 1564 1565 1567 1567 1571 1571 1573 1572 1573 1573 1571 1572 1572 1574 1574 1574 1570 1571 1570 1568
1505 1517 1526 1522 1521 1520 1515 1520 1523 1521 1521 1524 1522 1524 1528 1533 1538 1541 1543 1547 1550 1552 1554 1556 1558 1559 1560 1562 1563 1565 1566 1569 1571 1572 1573 1573 1572 1573 1574 1573 1573 1571 1573 1572 1574 1571 1569 1569 1568
1506 1519 1515 1509 1510 1517 1510 1514 1515 1520 1523 1524 1523 1527 1531 1533 1537 1539 1541 1544 1549 1552 1554 1555 1557 1560 1560 1562 1563 1565 1567 1569 1572 1572 1574 1573 1574 1573 1571 1572 1572 1572 1573 1572 1573 1571 1570 1567 1567
1505 1512 1504 1506 1507 1507 1507 1514 1517 1520 1526 1523 1522 1526 1531 1535 1537 1541 1544 1545 1548 1552 1555 1556 1558 1559 1561 1562 1564 1565 1568 1570 1570 1572 1574 1572 1573 1572 1571 1571 1572 1573 1572 1572 1571 1571 1569 1566 1565
1504 1501 1502 1500 1502 1505 1508 1513 1517 1518 1518 1518 1522 1525 1528 1532 1537 1540 1544 1546 1548 1551 1554 1557 1560 1561 1562 1564 1565 1568 1570 1572 1573 1574 1574 1573 1572 1572 1573 1571 1572 1573 1573 1572 1571 1570 1568 1567 1565
1499 1499 1499 1498 1502 1505 1508 1513 1515 1517 1518 1522 1525 1527 1528 1534 1537 1541 1544 1547 1550 1553 1555 1558 1561 1563 1565 1565 1568 1569 1572 1573 1574 1574 1573 1573 1572 1573 1573 1572 1571 1572 1571 1570 1569 1567 1566 1564 1562
1497 1499 1500 1501 1503 1507 1510 1515 1514 1516 1520 1523 1525 1528 1531 1535 1537 1542 1545 1548 1550 1555 1557 1560 1562 1564 1566 1568 1570 1571 1572 1573 1574 1572 1572 1571 1572 1572 1572 1570 1570 1570 1570 1568 1566 1564 1562 1560 1557
1498 1502 1501 1503 1506 1509 1510 1515 1516 1515 1519 1523 1525 1529 1534 1538 1540 1544 1547 1549 1551 1555 1556 1561 1563 1564 1565 1567 1570 1571 1572 1573 1572 1571 1570 1570 1570 1570 1570 1569 1568 1568 1568 1565 1563 1561 1559 1557 1553
1503 1509 1517 1506 1505 1510 1512 1526 1518 1518 1518 1524 1529 1532 1535 1539 1541 1544 1546 1549 1551 1552 1556 1559 1560 1563 1566 1567 1568 1568 1570 1570 1571 1570 1569 1570 1569 1568 1568 1567 1567 1566 1566 1563 1559 1556 1554 1551 1548
1515 1522 1514 1510 1508 1509 1512 1523 1523 1523 1525 1527 1530 1532 1535 1539 1541 1543 1545 1547 1549 1550 1553 1555 1558 1560 1565 1564 1563 1567 1569 1568 1569 1569 1569 1569 1569 1569 1568 1566 1566 1563 1561 1558 1555 1552 1549 1545 1542
1516 1517 1517 1514 1511 1515 1521 1532 1526 1523 1526 1528 1529 1532 1535 1537 1540 1542 1544 1545 1547 1548 1550 1552 1557 1560 1558 1561 1565 1565 1567 1568 1569 1569 1569 1569 1568 1568 1564 1563 1561 1558 1555 1552 1550 1547 1545 1540 1535
1507 1510 1514 1513 1511 1523 1536 1537 1533 1528 1529 1532 1532 1532 1535 1537 1539 1540 1541 1543 1546 1547 1549 1553 1558 1558 1564 1563 1563 1566 1568 1568 1569 1568 1567 1566 1564 1563 1560 1558 1556 1553 1550 1547 1544 1542 1539 1537 1532
1507 1517 1518 1516 1516 1523 1533 1538 1536 1534 1535 1535 1533 1535 1536 1538 1540 1541 1543 1545 1547 1549 1553 1555 1558 1561 1561 1562 1564 1566 1567 1566 1566 1565 1564 1563 1561 1559 1557 1554 1551 1549 1546 1544 1540 1537 1534 1531 1528
1514 1518 1518 1520 1521 1525 1529 1542 1544 1542 1540 1539 1538 1537 1539 1540 1541 1543 1546 1549 1550 1553 1556 1557 1560 1561 1563 1564 1565 1566 1566 1565 1564 1562 1561 1560 1558 1555 1553 1550 1548 1544 1541 1539 1535 1532 1529 1526 1525
1516 1514 1516 1521 1528 1540 1530 1555 1544 1545 1544 1542 1541 1541 1541 1543 1545 1548 1550 1549 1554 1556 1557 1559 1561 1563 1564 1564 1564 1564 1563 1562 1561 1559 1557 1556 1554 1552 1549 1547 1544 1541 1539 1536 1532 1529 1526 1523 1521
1515 1514 1517 1521 1530 1535 1536 1550 1548 1546 1547 1545 1543 1542 1543 1545 1546 1548 1551 1553 1555 1557 1558 1559 1560 1562 1562 1563 1563 1562 1561 1559 1558 1557 1555 1554 1552 1550 1548 1545 1542 1538 1534 1530 1527 1524 1522 1520 1519
1511 1516 1523 1530 1537 1555 1536 1543 1549 1545 1538 1542 1543 1543 1545 1546 1547 1549 1549 1554 1556 1558 1558 1560 1560 1560 1560 1561 1560 1559 1557 1556 1555 1554 1553 1550 1548 1546 1543 1539 1537 1533 1530 1527 1525 1522 1519 1516 1514
1517 1528 1556 1555 1562 1559 1539 1545 1537 1532 1532 1535 1538 1542 1545 1546 1548 1549 1550 1552 1557 1556 1557 1557 1558 1558 1559 1558 1557 1556 1555 1554 1553 1551 1549 1547 1544 1541 1538 1535 1532 1529 1526 1523 1520 1518 1516 1513 1512
1522 1527 1553 1545 1563 1555 1539 1544 1534 1529 1529 1532 1537 1541 1544 1546 1548 1548 1549 1552 1552 1554 1555 1555 1556 1557 1556 1555 1554 1554 1553 1551 1549 1547 1545 1542 1539 1535 1532 1530 1527 1525 1523 1520 1517 1515 1513 1511 1509
1522 1535 1530 1551 1561 1564 1552 1537 1530 1528 1531 1533 1536 1539 1542 1544 1546 1547 1549 1551 1551 1552 1553 1553 1553 1553 1553 1553 1551 1550 1549 1547 1545 1542 1539 1536 1533 1531 1528 1525 1523 1521 1517 1514 1512 1512 1510 1508 1506
1517 1525 1540 1552 1556 1550 1552 1545 1542 1534 1533 1533 1535 1536 1539 1541 1543 1546 1547 1548 1548 1549 1549 1550 1550 1550 1550 1549 1548 1546 1545 1543 1541 1538 1535 1532 1529 1526 1524 1521 1518 1515 1512 1510 1508 1508 1506 1504 1501
1526 1530 1539 1545 1559 1565 1573 1549 1527 1524 1524 1528 1531 1534 1537 1539 1541 1544 1545 1546 1547 1547 1547 1547 1548 1549 1548 1547 1546 1544 1542 1540 1537 1533 1530 1527 1524 1522 1518 1515 1511 1509 1507 1504 1504 1503 1502 1499 1497
1521 1525 1534 1556 1549 1569 1569 1550 1523 1523 1523 1525 1529 1533 1537 1539 1540 1542 1543 1545 1545 1546 1545 1546 1547 1546 1546 1545 1543 1541 1539 1535 1532 1529 1525 1522 1519 1515 1511 1509 1506 1504 1500 1500 1500 1498 1497 1494 1492